Location: La Trinit�
(48.1620°N, 3.4512°W)
Time: 07:23:54
(UTC+00:00)

BREEZE M DEB (TANK) - Pass Details

Date: 08 May 2021
Orbit: 340 x 13618 km, 49.6° (Epoch: 12 June)

Event Time Altitude Azimuth Distance (km) Brightness Sun altitude
Rises 19:57:13 0° 237° (WSW) 2,375 6.4 -3.7°
Reaches altitude 10° 19:58:37 10° 234° (SW) 1,725 5.7 -3.9°
Maximum altitude 20:01:58 67° 151° (SSE) 888 3.7 -4.4°
Drops below altitude 10° 20:12:01 10° 71° (ENE) 4,970 7.3 -5.8°
Sets 20:19:14 0° 71° (ENE) 7,805 8.3 -6.8°
